Terminal Aerodrome Forecast
Issued by NWS New Orleans/Baton Rouge, LA

Home | Current Version | Previous Version | Text Only | Print | Product List | Glossary On
Versions: 1 2 3 4 5 6 7 8 9 10 11 12 13 14 15
000
FTUS44 KLIX 290500
TAFBTR
TAF
KBTR 290538Z 2906/3006 06004KT P6SM BKN005 OVC090
     FM291900 36004KT P6SM BKN025
     FM300000 VRB03KT P6SM BKN008=

USA.gov is the U.S. government's official web portal to all federal, state and local government web resources and services.